INMARSAT 5-F4

Last updated on Jan. 29, 2020, 4:37 a.m. UTC

1 42698U 17025A   20028.88846397  .00000074  00000-0  00000-0 0  9990
2 42698   0.0182  75.0398 0000258 175.9297 252.9556  1.00272368  9898
UTC
Height (km)
Latitude
Longitude
Inclination
Orbital Period
UTC large
Height (km)
Speed (km/s)
/
Latitude / Longitude
Inclination (degrees)
Orbital Period (minutes)
Azimuth
Elevation
Range (km)
Doppler Factor
iOS Compass Heading
iOS Angle

Next 30 passes for location: Hong Kong

Rise time Rise Azimuth (degrees) Set time Set Azimuth (degrees) Duration Max altitude (degrees)

No matching passes for this satellites